GW4077 Weather Reports


time (UTC)temp
C
wind
direction
speed
KPH
gust
KPH
rain 1hr
cm
rain 24hr
cm
rain mn
cm
humidity
%
barometer
mb
20260508014421 18 165 9.7 11.3 0.00 0.05 0.03 52 1012.8
20260508013443 18 154 11.3 11.3 0.00 0.05 0.03 51 1012.8
20260508012426 18 186 12.9 14.5 0.00 0.05 0.03 52 1012.8
20260508011427 19 171 12.9 12.9 0.00 0.05 0.03 50 1012.8
20260508010427 20 163 9.7 11.3 0.00 0.05 0.03 46 1012.9
20260508005428 20 180 8.0 9.7 0.00 0.05 0.03 46 1013.0
20260508004420 20 169 6.4 8.0 0.00 0.05 0.03 48 1013.2
20260508003421 20 167 12.9 14.5 0.00 0.05 0.03 47 1013.1
20260508002423 20 179 12.9 14.5 0.00 0.05 0.03 45 1013.2
20260508001427 20 169 9.7 12.9 0.00 0.05 0.03 46 1013.1
20260508000427 20 175 14.5 14.5 0.00 0.05 0.03 47 1013.3
20260507235427 20 118 11.3 11.3 0.00 0.05 0.03 45 1013.0
20260507234450 20 122 8.0 9.7 0.00 0.05 0.03 45 1013.3
20260507233420 21 153 6.4 9.7 0.00 0.05 0.03 47 1013.5
20260507232423 21 116 12.9 16.1 0.00 0.05 0.03 46 1013.4
20260507231423 20 198 11.3 12.9 0.00 0.05 0.03 48 1013.6
20260507230426 18 168 12.9 16.1 0.00 0.05 0.03 54 1013.5
20260507225426 19 173 6.4 9.7 0.00 0.05 0.03 53 1013.7
20260507224427 17 177 12.9 16.1 0.00 0.05 0.03 54 1013.7
20260507223429 18 168 14.5 16.1 0.00 0.05 0.03 53 1013.9
20260507222421 18 142 11.3 12.9 0.00 0.05 0.03 51 1014.2
20260507221423 19 161 9.7 11.3 0.00 0.05 0.03 51 1014.1
20260507220445 20 176 14.5 16.1 0.00 0.05 0.03 51 1014.0
20260507215426 19 149 11.3 12.9 0.03 0.05 0.03 48 1014.0
20260507214446 20 174 8.0 11.3 0.03 0.05 0.03 47 1014.0
20260507213427 20 157 8.0 11.3 0.03 0.05 0.03 49 1014.2
20260507212446 19 179 6.4 8.0 0.03 0.05 0.03 58 1014.4
20260507211421 17 140 6.4 11.3 0.03 0.05 0.03 65 1014.4
20260507210421 16 170 11.3 11.3 0.03 0.05 0.03 69 1014.7
20260507205446 17 0.0 0.0 0.00 0.03 0.00 60 1015.2
20260507204507 17 324 4.8 6.4 0.00 0.03 0.00 56 1015.3
20260507203446 17 188 9.7 11.3 0.00 0.03 0.00 56 1015.0
20260507202428 18 114 6.4 8.0 0.00 0.03 0.00 52 1014.7
20260507201428 19 158 9.7 11.3 0.00 0.03 0.00 53 1014.7
20260507200422 19 141 16.1 20.9 0.00 0.03 0.00 49 1014.8
20260507195423 20 91 11.3 14.5 0.00 0.03 0.00 50 1014.8
20260507194425 18 171 17.7 20.9 0.00 0.03 0.00 54 1014.8
20260507193426 18 121 16.1 22.5 0.00 0.03 0.00 56 1014.8
20260507192426 18 160 14.5 17.7 0.00 0.03 0.00 57 1015.0
20260507191429 18 188 14.5 16.1 0.00 0.03 0.00 59 1014.9
20260507190430 18 167 8.0 9.7 0.00 0.03 0.00 60 1015.1
20260507185443 18 106 9.7 12.9 0.00 0.03 0.00 62 1015.1
20260507184421 18 129 9.7 11.3 0.00 0.03 0.00 61 1015.3
20260507183424 17 120 8.0 12.9 0.00 0.03 0.00 61 1015.4
20260507182445 17 140 8.0 11.3 0.00 0.03 0.00 61 1015.4
20260507181436 16 218 8.0 12.9 0.00 0.03 0.00 68 1015.3
20260507180428 16 146 6.4 8.0 0.00 0.03 0.00 68 1015.5
20260507175446 16 113 8.0 11.3 0.00 0.03 0.00 68 1015.3
20260507174420 15 174 6.4 9.7 0.00 0.03 0.00 71 1015.5
20260507173421 15 108 8.0 11.3 0.00 0.03 0.00 72 1015.6
20260507172423 15 122 4.8 6.4 0.00 0.03 0.00 72 1015.5
20260507171426 15 63 9.7 11.3 0.00 0.03 0.00 71 1015.4
20260507170426 15 159 8.0 12.9 0.00 0.03 0.00 71 1015.5
20260507165448 15 82 9.7 11.3 0.00 0.03 0.00 69 1015.8
20260507164429 15 122 8.0 9.7 0.00 0.03 0.00 72 1015.9
20260507163420 15 48 6.4 8.0 0.00 0.03 0.00 72 1016.0
20260507162422 13 87 3.2 4.8 0.00 0.03 0.00 81 1016.3
20260507161429 12 0.0 0.0 0.00 0.03 0.00 86 1016.3
20260507160427 11 309 3.2 4.8 0.00 0.03 0.00 87 1016.1
20260507155426 11 0.0 0.0 0.00 0.03 0.00 88 1016.0
20260507154428 11 42 6.4 6.4 0.00 0.03 0.00 87 1016.0
20260507153429 11 342 6.4 8.0 0.00 0.03 0.00 87 1016.0
20260507152420 11 347 6.4 9.7 0.00 0.03 0.00 86 1015.7
20260507151426 11 334 6.4 8.0 0.00 0.03 0.00 84 1015.8
20260507150426 11 54 6.4 8.0 0.00 0.03 0.00 84 1015.5
20260507145426 11 51 6.4 6.4 0.00 0.03 0.00 86 1015.5
20260507144426 11 352 4.8 6.4 0.00 0.03 0.00 87 1015.5
20260507143428 11 24 4.8 4.8 0.00 0.03 0.00 88 1015.3
20260507142429 10 337 8.0 8.0 0.00 0.03 0.00 88 1015.3
20260507141422 10 340 4.8 6.4 0.00 0.03 0.00 88 1015.0
20260507140423 10 328 3.2 4.8 0.00 0.03 0.00 89 1014.9
20260507135429 9 0.0 0.0 0.00 0.03 0.00 90 1014.8
20260507134445 9 311 3.2 4.8 0.00 0.03 0.00 89 1014.8
20260507133426 9 330 6.4 6.4 0.00 0.03 0.00 89 1014.6
20260507132428 9 322 4.8 6.4 0.00 0.03 0.00 90 1014.4
20260507131429 8 284 3.2 4.8 0.00 0.03 0.00 91 1014.3
20260507130422 8 0.0 0.0 0.00 0.03 0.00 90 1014.3
20260507125422 8 209 1.6 3.2 0.00 0.03 0.00 90 1014.2
20260507124425 8 351 1.6 3.2 0.00 0.03 0.00 91 1014.1
20260507123505 8 0.0 0.0 0.00 0.03 0.00 90 1014.0
20260507122426 8 318 4.8 4.8 0.00 0.03 0.00 90 1014.0
20260507121428 8 0.0 0.0 0.00 0.03 0.00 88 1013.9
20260507120426 9 336 3.2 4.8 0.00 0.03 0.00 88 1013.6
20260507115422 9 58 0.0 1.6 0.00 0.03 0.00 88 1013.6
20260507114422 9 0.0 0.0 0.00 0.03 0.00 88 1013.6
20260507113423 9 7 3.2 4.8 0.00 0.03 0.00 88 1013.7
20260507112425 8 324 4.8 4.8 0.00 0.03 0.00 90 1013.6
20260507111426 8 0.0 0.0 0.00 0.03 0.00 90 1013.6
20260507110427 8 0.0 0.0 0.00 0.03 0.00 89 1013.4
20260507105450 8 96 1.6 3.2 0.00 0.03 0.00 88 1013.5
20260507104420 9 0.0 0.0 0.00 0.03 0.00 87 1013.4
20260507103422 9 277 3.2 3.2 0.00 0.03 0.00 86 1013.3
20260507102423 9 314 4.8 6.4 0.00 0.03 0.00 87 1013.4
20260507101426 9 298 4.8 6.4 0.00 0.03 0.00 87 1013.2
20260507100426 9 337 3.2 3.2 0.00 0.03 0.00 86 1013.2
20260507095427 9 294 3.2 3.2 0.00 0.03 0.00 86 1013.3
20260507094429 10 0.0 0.0 0.00 0.03 0.00 84 1013.1
20260507093420 10 209 6.4 6.4 0.00 0.03 0.00 83 1013.1
20260507092422 11 0.0 0.0 0.00 0.03 0.00 81 1013.2
20260507091428 11 327 4.8 4.8 0.00 0.03 0.00 80 1013.4
20260507090427 11 1 11.3 12.9 0.00 0.03 0.00 79 1013.7
20260507085426 11 318 9.7 11.3 0.00 0.03 0.00 80 1013.5
20260507084428 11 339 6.4 8.0 0.00 0.03 0.00 80 1013.5
20260507083429 11 34 12.9 16.1 0.00 0.03 0.00 81 1013.6
20260507082422 12 354 12.9 16.1 0.00 0.03 0.00 81 1013.6
20260507081443 12 336 19.3 20.9 0.00 0.03 0.00 79 1013.6
20260507080423 12 23 6.4 8.0 0.00 0.03 0.00 75 1013.1
20260507075424 12 18 6.4 11.3 0.00 0.03 0.00 78 1013.4
20260507074426 12 348 9.7 11.3 0.00 0.03 0.00 78 1013.2
20260507073448 12 95 11.3 11.3 0.00 0.03 0.00 74 1013.0
20260507072426 12 0.0 0.0 0.00 0.03 0.00 73 1012.7
20260507071522 12 285 4.8 4.8 0.00 0.03 0.00 72 1012.9
20260507070422 13 167 8.0 9.7 0.00 0.03 0.00 72 1012.7
20260507065443 13 356 1.6 3.2 0.00 0.03 0.00 68 1012.9
20260507064426 12 255 4.8 4.8 0.00 0.03 0.00 69 1012.8
20260507063426 12 240 3.2 4.8 0.00 0.03 0.00 74 1012.9
20260507062428 12 308 3.2 4.8 0.00 0.03 0.00 74 1012.4
20260507061430 12 334 3.2 3.2 0.00 0.03 0.00 72 1012.3
20260507060420 12 344 3.2 4.8 0.00 0.03 0.00 72 1012.5
20260507055422 12 0.0 0.0 0.00 0.03 0.03 72 1012.0
20260507054425 13 114 3.2 6.4 0.00 0.03 0.03 70 1012.0
20260507053426 13 32 3.2 4.8 0.00 0.03 0.03 67 1012.0
20260507052446 13 78 9.7 12.9 0.03 0.03 0.03 65 1012.1
20260507051428 14 160 11.3 11.3 0.03 0.03 0.03 61 1011.2
20260507050425 14 164 4.8 6.4 0.03 0.03 0.03 61 1012.3
20260507045427 13 294 6.4 6.4 0.03 0.03 0.03 62 1012.9
20260507044422 13 300 11.3 11.3 0.03 0.03 0.03 65 1013.0
20260507043428 14 314 14.5 17.7 0.03 0.03 0.03 65 1012.7
20260507042426 13 312 14.5 16.1 0.00 0.00 0.00 66 1012.4
20260507041426 13 111 0.0 1.6 0.00 0.00 0.00 70 1011.5
20260507040428 13 0.0 0.0 0.00 0.00 0.00 68 1011.7
20260507035429 13 0.0 0.0 0.00 0.00 0.00 67 1011.7
20260507034420 13 0.0 0.0 0.00 0.00 0.00 65 1011.6
20260507033423 13 0.0 0.0 0.00 0.00 0.00 63 1011.4
20260507032426 14 155 4.8 4.8 0.00 0.00 0.00 62 1011.5
20260507031426 15 0.0 0.0 0.00 0.00 0.00 60 1011.5
20260507030426 15 0.0 0.0 0.00 0.00 0.00 59 1011.4
20260507025428 15 338 3.2 3.2 0.00 0.00 0.00 58 1011.3
20260507024429 16 0.0 0.0 0.00 0.00 0.00 53 1011.2
20260507023422 16 67 4.8 4.8 0.00 0.00 0.00 53 1011.1
20260507022422 16 100 1.6 1.6 0.00 0.00 0.00 49 1011.3
20260507021445 17 173 3.2 3.2 0.00 0.00 0.00 51 1011.1
20260507020425 17 219 6.4 8.0 0.00 0.00 0.00 47 1010.9
20260507015426 17 210 6.4 6.4 0.00 0.00 0.00 51 1011.0